STARLINK-32609, 61929

Orbit data source: Space-Track

STARLINK-32609, 61929 is a payload satellite owned by SpaceX/Seattle (US) in LEO that was launched on Mon, 11 Nov 2024 UTC via an FALCON 9 launch vehicle from the Air Force Eastern Test Range (AFETR). Payload-class satellites include a variety of spacecraft equipped with specific instruments for various scientific and technological missions. These include communications satellites like Starlink; space stations such as the ISS; scientific satellites like the Hubble; Earth observation satellites from companies like Planet Labs, Umbra, and HawkEye 360; GPS; miniature CubeSats for education and research; and military/defense satellites.

Loading next visibility...
Identifier
61929, 2024-207T
Orbit
LEO
Country
Flag of USUS
Related business
Manufacturer
SpaceX/Seattle
Mission
Operational Commercial Communications
Bus & Motor
STARLINK V2M, Unknown motor
Mass
730 kg wet, ~700 kg dry
Launch date (UTC)
2024-11-11 (1 year ago)
Launch vehicle
FALCON 9
Launch site
Air Force Eastern Test Range (AFETR)
Object type
Payload
Rocket body
Debris
Shape & HBR
Box + 2 Pan, 17.7 m
Radar Cross Section
33.884 m², Large (>1 m²)

Expand to show TLE details & history
Last TLE update: 18 hours ago

TLE from 18 hours ago
0 STARLINK-32609
1 61929U 24207T   26072.87717036  .00036537  00000-0  13298-2 0  9997
2 61929  42.9996 257.9909 0001611 272.5876  87.4791 15.27602309 75367
Epoch: 2026-03-13T21:03Z
TLE epoch observation values (Epoch: 2026-03-13T21:03:07.519Z)
Latitude
-0.00002°
Longitude
130.70315°
Altitude
482.709 km
Speed
7.626 km/s
True Right ascension
17h 11m 57s
True Declination
0° 00' 00"
Sunlit
Object was in daylight at epoch
Visualization orbit readout
Latitude
Unknown
Longitude
Unknown
Altitude
Unknown
Speed
Unknown
Apparent Right ascension
Unknown
Apparent Declination
Unknown
Sunlit
N/A
Visualization observer readout
Local Sidereal Time
19:16:42
Azimuth
Unknown
Elevation
Unknown
Doppler factor
Unknown
Orbital elements
Apogee altitude
486.033 km
Perigee altitude
483.822 km
Semi-major axis
6,863.065 km
Eccentricity
0.00016
Inclination
42.9996°
RAAN
257.9909°
Arg. of periapsis
272.5876°
True anomaly
87.49754°
Mean anomaly
87.4791°
Eccentric anomaly
87.48832°
Mean motion
3.81739 °/min
Orbital period
94.31 mins
BSTAR
0.0013298
Loading maneuver chart data...
Computing Atmospheric mass density...
Loading historical data...
Loading historical data...
Loading historical data...
Loading historical data...
Loading historical data...
Loading historical data...
Loading historical data...

Documentation

Showing up to 5 results
|